Date String (YYYY-MM-DD hh:mm:ss) UTC,Instrument flags,Ambient pressure (hPa),Sample flow (lpm),Bypass flow (lpm),Sample temperature (°C),Ambient temperature (°C),ASC tube jacket temperature (°C),LED temperature (°C),Box temperature (°C),Sample RH (%),Span deviation,Mass concentration (μg/m³),Mass concentration (μg/m³),Mass concentration (μg/m³)
DateTimeUTC,F1_M11,P_M11,Q1_M11,Q2_M11,T1_M11,T2_M11,T3_M11,T4_M11,T5_M11,U1_M11,ZSPAN_M11,X0_M11,X2_M11,X1_M11
2021-12-20 11:00:00,,0825.3,5.02,0.00,23.3,22.5,00.0,32.2,25.1,05.8,0000.0,0000.75,0000.52,0000.45
2021-12-20 11:01:00,,0825.3,4.99,0.00,23.3,22.5,00.0,32.2,25.0,05.8,0000.0,0000.81,0000.54,0000.46
2021-12-20 11:02:00,,0825.2,4.99,0.00,23.3,22.5,00.0,32.2,25.1,05.8,0000.0,0000.95,0000.56,0000.46
2021-12-20 11:03:00,,0825.2,5.01,0.00,23.3,22.5,00.0,32.2,25.1,05.8,0000.0,0001.05,0000.58,0000.46
2021-12-20 11:04:00,,0825.2,4.99,0.00,23.3,22.5,00.0,32.2,25.1,05.8,0000.0,0001.09,0000.59,0000.46
2021-12-20 11:05:00,,0825.2,5.01,0.00,23.3,22.5,00.0,32.2,25.0,05.8,0000.0,0001.04,0000.57,0000.46
2021-12-20 11:06:00,,0825.3,4.98,0.00,23.3,22.5,00.0,32.2,25.0,05.8,0000.0,0000.97,0000.54,0000.45
2021-12-20 11:07:00,,0825.2,5.00,0.00,23.3,22.5,00.0,32.2,25.0,05.8,0000.0,0000.95,0000.53,0000.44
2021-12-20 11:08:00,,0825.3,4.99,0.00,23.3,22.5,00.0,32.2,25.0,05.8,0000.0,0000.95,0000.53,0000.44
2021-12-20 11:09:00,,0825.3,5.01,0.00,23.3,22.5,00.0,32.2,25.0,05.8,0000.0,0000.85,0000.51,0000.43
2021-12-20 11:10:00,,0825.2,5.00,0.00,23.3,22.5,00.0,32.3,25.0,05.8,0000.0,0000.84,0000.51,0000.42
2021-12-20 11:11:00,,0825.2,5.01,0.00,23.3,22.5,00.0,32.3,25.1,05.8,0000.0,0000.82,0000.49,0000.41
2021-12-20 11:12:00,,0825.2,4.98,0.00,23.3,22.5,00.0,32.3,25.1,05.8,0000.0,0000.75,0000.48,0000.41
2021-12-20 11:13:00,,0825.3,5.00,0.00,23.3,22.5,00.0,32.3,25.1,05.8,0000.0,0000.62,0000.44,0000.40
2021-12-20 11:14:00,,0825.3,5.00,0.00,23.3,22.5,00.0,32.3,25.1,05.8,0000.0,0000.55,0000.43,0000.39
2021-12-20 11:15:00,,0825.3,4.99,0.00,23.3,22.5,00.0,32.3,25.1,05.8,0000.0,0000.52,0000.41,0000.38
2021-12-20 11:16:00,,0825.3,5.01,0.00,23.3,22.5,00.0,32.3,25.1,05.8,0000.0,0000.52,0000.41,0000.38
2021-12-20 11:17:00,,0825.3,4.99,0.00,23.3,22.5,00.0,32.3,25.0,05.8,0000.0,0000.54,0000.42,0000.37
2021-12-20 11:18:00,,0825.3,5.00,0.00,23.3,22.5,00.0,32.3,25.0,05.8,0000.0,0000.55,0000.43,0000.37
2021-12-20 11:19:00,,0825.3,4.99,0.00,23.3,22.5,00.0,32.3,25.0,05.8,0000.0,0000.57,0000.43,0000.36
2021-12-20 11:20:00,,0825.3,5.00,0.00,23.3,22.5,00.0,32.3,25.0,05.8,0000.0,0000.62,0000.45,0000.37
2021-12-20 11:21:00,,0825.3,4.99,0.00,23.3,22.5,00.0,32.3,25.0,05.8,0000.0,0000.62,0000.44,0000.36
2021-12-20 11:22:00,,0825.3,5.00,0.00,23.3,22.5,00.0,32.3,25.0,05.8,0000.0,0000.62,0000.44,0000.36
2021-12-20 11:23:00,,0825.3,5.01,0.00,23.3,22.4,00.0,32.3,25.0,05.8,0000.0,0000.64,0000.44,0000.35
2021-12-20 11:24:00,,0825.3,5.00,0.00,23.3,22.5,00.0,32.3,25.0,05.8,0000.0,0000.67,0000.45,0000.35
2021-12-20 11:25:00,,0825.4,5.00,0.00,23.3,22.5,00.0,32.3,25.0,05.8,0000.0,0000.64,0000.44,0000.35
2021-12-20 11:26:00,,0825.3,4.99,0.00,23.3,22.5,00.0,32.3,25.0,05.8,0000.0,0000.61,0000.43,0000.35
2021-12-20 11:27:00,,0825.3,5.02,0.00,23.3,22.5,00.0,32.3,25.0,05.8,0000.0,0000.63,0000.43,0000.35
2021-12-20 11:28:00,,0825.4,4.99,0.00,23.3,22.5,00.0,32.3,25.0,05.8,0000.0,0000.69,0000.42,0000.36
2021-12-20 11:29:00,,0825.3,5.00,0.00,23.3,22.5,00.0,32.3,25.0,05.8,0000.0,0000.73,0000.43,0000.36
2021-12-20 11:30:00,,0825.4,5.00,0.00,23.3,22.5,00.0,32.3,25.0,05.8,0000.0,0000.71,0000.43,0000.36
2021-12-20 11:31:00,,0825.4,4.99,0.00,23.3,22.5,00.0,32.3,25.0,05.9,0000.0,0000.66,0000.41,0000.35
2021-12-20 11:32:00,,0825.4,5.01,0.00,23.3,22.5,00.0,32.3,25.1,05.9,0000.0,0000.67,0000.41,0000.35
2021-12-20 11:33:00,,0825.4,5.00,0.00,23.3,22.5,00.0,32.3,25.0,05.9,0000.0,0000.69,0000.42,0000.35
2021-12-20 11:34:00,,0825.4,4.99,0.00,23.3,22.5,00.0,32.3,25.1,05.8,0000.0,0000.68,0000.42,0000.36
2021-12-20 11:35:00,,0825.5,5.02,0.00,23.3,22.5,00.0,32.3,25.1,05.8,0000.0,0000.70,0000.44,0000.36
2021-12-20 11:36:00,,0825.4,4.98,0.00,23.3,22.5,00.0,32.3,25.1,05.8,0000.0,0000.75,0000.48,0000.37
2021-12-20 11:37:00,,0825.4,5.01,0.00,23.3,22.5,00.0,32.3,25.1,05.8,0000.0,0000.78,0000.50,0000.38
2021-12-20 11:38:00,,0825.5,4.99,0.00,23.3,22.5,00.0,32.3,25.1,05.8,0000.0,0000.77,0000.51,0000.39
2021-12-20 11:39:00,,0825.5,5.00,0.00,23.3,22.5,00.0,32.3,25.1,05.8,0000.0,0000.67,0000.51,0000.39
2021-12-20 11:40:00,,0825.5,5.01,0.00,23.3,22.5,00.0,32.3,25.1,05.9,0000.0,0000.63,0000.49,0000.39
2021-12-20 11:41:00,,0825.5,4.99,0.00,23.3,22.5,00.0,32.3,25.0,05.9,0000.0,0000.64,0000.50,0000.39
2021-12-20 11:42:00,,0825.5,5.01,0.00,23.3,22.5,00.0,32.3,25.0,06.0,0000.0,0000.65,0000.50,0000.40
2021-12-20 11:43:00,,0825.5,5.00,0.00,23.3,22.5,00.0,32.3,25.0,06.0,0000.0,0001.54,0000.50,0000.40
2021-12-20 11:44:00,,0825.5,4.99,0.00,23.3,22.5,00.0,32.3,25.0,06.0,0000.0,0002.21,0000.49,0000.40
2021-12-20 11:45:00,,0825.5,5.00,0.00,23.3,22.4,00.0,32.3,25.0,06.0,0000.0,0002.19,0000.48,0000.39
2021-12-20 11:46:00,,0825.5,5.00,0.00,23.3,22.4,00.0,32.3,25.0,06.0,0000.0,0002.15,0000.45,0000.39
2021-12-20 11:47:00,,0825.5,5.00,0.00,23.3,22.4,00.0,32.3,25.0,06.0,0000.0,0002.12,0000.42,0000.38
2021-12-20 11:48:00,,0825.5,4.99,0.00,23.3,22.4,00.0,32.3,25.0,06.0,0000.0,0002.12,0000.41,0000.37
2021-12-20 11:49:00,,0825.5,5.00,0.00,23.3,22.4,00.0,32.3,25.0,06.0,0000.0,0002.12,0000.41,0000.37
2021-12-20 11:50:00,,0825.5,5.01,0.00,23.3,22.4,00.0,32.3,25.0,06.0,0000.0,0002.12,0000.41,0000.37
2021-12-20 11:51:00,,0825.5,5.02,0.00,23.3,22.4,00.0,32.3,25.0,05.9,0000.0,0002.12,0000.40,0000.37
2021-12-20 11:52:00,,0825.5,4.99,0.00,23.3,22.5,00.0,32.3,25.0,06.0,0000.0,0002.09,0000.39,0000.37
2021-12-20 11:53:00,,0825.5,5.00,0.00,23.3,22.5,00.0,32.3,25.0,05.9,0000.0,0002.08,0000.39,0000.36
2021-12-20 11:54:00,,0825.6,5.00,0.00,23.3,22.5,00.0,32.3,25.1,06.0,0000.0,0001.67,0000.38,0000.35
2021-12-20 11:55:00,,0825.6,5.00,0.00,23.3,22.5,00.0,32.3,25.1,05.9,0000.0,0000.46,0000.38,0000.36
2021-12-20 11:56:00,,0825.6,5.00,0.00,23.3,22.5,00.0,32.3,25.0,06.1,0000.0,0000.48,0000.39,0000.36
2021-12-20 11:57:00,,0825.6,5.00,0.00,23.3,22.5,00.0,32.3,25.0,06.1,0000.0,0000.48,0000.39,0000.35
2021-12-20 11:58:00,,0825.6,5.00,0.00,23.3,22.5,00.0,32.3,25.0,06.1,0000.0,0000.46,0000.38,0000.35
2021-12-20 11:59:00,,0825.6,4.99,0.00,23.3,22.5,00.0,32.3,25.1,06.0,0000.0,0000.42,0000.36,0000.35
